Time,TemperatureF,DewpointF,PressureIn,WindDirection,WindDirectionDegrees,WindSpeedMPH,WindSpeedGustMPH,Humidity,HourlyPrecipIn,Conditions,Clouds,dailyrainin,SoftwareType,DateUTC
2013-01-16 00:02:00,23.0,17.0,29.90,SW,232,15.0,21.0,78,0.00,,,0.00,,2013-01-16 06:02:00,
2013-01-16 00:12:00,23.0,17.0,29.90,SW,232,15.0,21.0,78,0.00,,,0.00,,2013-01-16 06:12:00,
2013-01-16 00:22:00,23.0,17.0,29.90,SW,215,13.0,24.0,78,0.00,,,0.00,,2013-01-16 06:22:00,
2013-01-16 00:32:00,23.0,17.0,29.89,SW,217,15.0,20.0,78,0.00,,,0.00,,2013-01-16 06:32:00,
2013-01-16 00:43:00,23.0,17.0,29.89,SW,217,15.0,20.0,78,0.00,,,0.00,,2013-01-16 06:43:00,
2013-01-16 00:52:00,23.0,17.0,29.88,SW,231,15.0,20.0,79,0.00,,,0.00,,2013-01-16 06:52:00,
2013-01-16 01:02:00,23.0,17.0,29.85,SW,214,13.0,20.0,79,0.00,,,0.00,,2013-01-16 07:02:00,
2013-01-16 01:12:00,23.0,17.0,29.85,SW,214,13.0,20.0,79,0.00,,,0.00,,2013-01-16 07:12:00,
2013-01-16 01:22:00,23.0,17.0,29.85,SW,214,13.0,20.0,79,0.00,,,0.00,,2013-01-16 07:22:00,
2013-01-16 01:32:00,23.0,17.0,29.83,WSW,246,19.0,27.0,78,0.00,,,0.00,,2013-01-16 07:32:00,
2013-01-16 01:42:00,23.0,17.0,29.83,WSW,246,19.0,27.0,78,0.00,,,0.00,,2013-01-16 07:42:00,
2013-01-16 01:52:00,23.0,17.0,29.83,WSW,239,16.0,21.0,78,0.00,,,0.00,,2013-01-16 07:52:00,
2013-01-16 02:02:00,23.0,17.0,29.83,WSW,239,16.0,21.0,78,0.00,,,0.00,,2013-01-16 08:02:00,
2013-01-16 02:12:00,23.0,17.0,29.83,WSW,239,16.0,21.0,78,0.00,,,0.00,,2013-01-16 08:12:00,
2013-01-16 02:22:00,24.0,18.0,29.80,WSW,238,17.0,22.0,77,0.00,,,0.00,,2013-01-16 08:22:00,
2013-01-16 02:32:00,24.0,18.0,29.80,WSW,238,17.0,22.0,77,0.00,,,0.00,,2013-01-16 08:32:00,
2013-01-16 02:42:00,24.0,18.0,29.80,WSW,238,17.0,22.0,77,0.00,,,0.00,,2013-01-16 08:42:00,
2013-01-16 02:53:00,24.0,18.0,29.80,SW,231,17.0,26.0,77,0.00,,,0.00,,2013-01-16 08:53:00,
2013-01-16 03:02:00,24.0,18.0,29.80,SW,216,16.0,22.0,77,0.00,,,0.00,,2013-01-16 09:02:00,
2013-01-16 03:12:00,24.0,18.0,29.80,SW,216,16.0,22.0,77,0.00,,,0.00,,2013-01-16 09:12:00,
2013-01-16 03:22:00,24.0,18.0,29.80,SW,216,16.0,22.0,77,0.00,,,0.00,,2013-01-16 09:22:00,
2013-01-16 03:32:00,24.0,19.0,29.77,SW,218,18.0,24.0,80,0.00,,,0.00,,2013-01-16 09:32:00,
2013-01-16 03:42:00,24.0,19.0,29.77,SW,218,18.0,24.0,80,0.00,,,0.00,,2013-01-16 09:42:00,
2013-01-16 03:53:00,24.0,19.0,29.75,SW,226,16.0,24.0,80,0.00,,,0.00,,2013-01-16 09:53:00,
2013-01-16 04:02:00,24.0,19.0,29.75,SW,226,16.0,24.0,80,0.00,,,0.00,,2013-01-16 10:02:00,
2013-01-16 04:12:00,24.0,19.0,29.75,SW,226,16.0,24.0,80,0.00,,,0.00,,2013-01-16 10:12:00,
2013-01-16 04:22:00,25.0,20.0,29.74,SW,228,16.0,21.0,80,0.00,,,0.00,,2013-01-16 10:22:00,
2013-01-16 04:32:00,25.0,21.0,29.74,WSW,245,15.0,22.0,83,0.00,,,0.00,,2013-01-16 10:32:00,
2013-01-16 04:42:00,25.0,21.0,29.74,WSW,245,15.0,22.0,83,0.00,,,0.00,,2013-01-16 10:42:00,
2013-01-16 04:52:00,25.0,21.0,29.72,WSW,238,17.0,26.0,83,0.00,,,0.00,,2013-01-16 10:52:00,
2013-01-16 05:02:00,25.0,21.0,29.73,WSW,256,19.0,23.0,84,0.00,,,0.00,,2013-01-16 11:02:00,
2013-01-16 05:12:00,25.0,21.0,29.73,WSW,256,19.0,23.0,84,0.00,,,0.00,,2013-01-16 11:12:00,
2013-01-16 05:22:00,25.0,21.0,29.73,WSW,256,19.0,23.0,84,0.00,,,0.00,,2013-01-16 11:22:00,
2013-01-16 05:32:00,26.0,22.0,29.72,WSW,249,16.0,24.0,83,0.00,,,0.00,,2013-01-16 11:32:00,
2013-01-16 05:42:00,26.0,22.0,29.72,WSW,249,16.0,24.0,83,0.00,,,0.00,,2013-01-16 11:42:00,
2013-01-16 05:53:00,26.0,22.0,29.71,WSW,242,16.0,26.0,85,0.00,,,0.00,,2013-01-16 11:53:00,
2013-01-16 06:03:00,26.0,22.0,29.72,WSW,245,17.0,21.0,86,0.00,,,0.00,,2013-01-16 12:03:00,
2013-01-16 06:13:00,26.0,22.0,29.72,WSW,245,17.0,21.0,86,0.00,,,0.00,,2013-01-16 12:13:00,
2013-01-16 06:22:00,26.0,24.0,29.71,WSW,238,15.0,20.0,91,0.00,,,0.00,,2013-01-16 12:22:00,
2013-01-16 06:33:00,26.0,24.0,29.71,WSW,238,15.0,20.0,91,0.00,,,0.00,,2013-01-16 12:33:00,
2013-01-16 06:43:00,26.0,24.0,29.71,WSW,238,15.0,20.0,91,0.00,,,0.00,,2013-01-16 12:43:00,
2013-01-16 06:53:00,26.0,24.0,29.72,WSW,243,13.0,17.0,93,0.00,,,0.00,,2013-01-16 12:53:00,
2013-01-16 07:03:00,27.0,25.0,29.73,WSW,238,12.0,16.0,93,0.00,,,0.00,,2013-01-16 13:03:00,
2013-01-16 07:12:00,27.0,25.0,29.73,WSW,238,12.0,16.0,93,0.00,,,0.00,,2013-01-16 13:12:00,
2013-01-16 07:22:00,27.0,25.0,29.73,WSW,254,9.0,16.0,93,0.00,,,0.00,,2013-01-16 13:22:00,
2013-01-16 07:33:00,27.0,25.0,29.72,SW,229,12.0,15.0,93,0.00,,,0.00,,2013-01-16 13:33:00,
2013-01-16 07:43:00,27.0,25.0,29.72,SW,229,12.0,15.0,93,0.00,,,0.00,,2013-01-16 13:43:00,
2013-01-16 07:52:00,28.0,26.0,29.72,WSW,246,12.0,19.0,93,0.00,,,0.00,,2013-01-16 13:52:00,
2013-01-16 08:03:00,28.0,26.0,29.72,WSW,246,12.0,19.0,93,0.00,,,0.00,,2013-01-16 14:03:00,
2013-01-16 08:12:00,28.0,26.0,29.72,WSW,246,12.0,19.0,93,0.00,,,0.00,,2013-01-16 14:12:00,
2013-01-16 08:23:00,29.0,27.0,29.73,SW,236,10.0,14.0,93,0.00,,,0.00,,2013-01-16 14:23:00,
2013-01-16 08:33:00,29.0,27.0,29.73,SW,236,10.0,14.0,93,0.00,,,0.00,,2013-01-16 14:33:00,
2013-01-16 08:43:00,29.0,27.0,29.73,SW,236,10.0,14.0,93,0.00,,,0.00,,2013-01-16 14:43:00,
2013-01-16 08:53:00,30.0,28.0,29.75,WSW,256,8.0,11.0,92,0.00,,,0.00,,2013-01-16 14:53:00,
2013-01-16 09:03:00,31.0,29.0,29.76,West,259,6.0,10.0,93,0.00,,,0.00,,2013-01-16 15:03:00,
2013-01-16 09:12:00,31.0,29.0,29.76,West,259,6.0,10.0,93,0.00,,,0.00,,2013-01-16 15:12:00,
2013-01-16 09:23:00,31.0,29.0,29.76,West,259,6.0,10.0,93,0.00,,,0.00,,2013-01-16 15:23:00,
2013-01-16 09:33:00,32.0,30.0,29.76,West,281,7.0,11.0,92,0.00,,,0.00,,2013-01-16 15:33:00,
2013-01-16 09:43:00,32.0,30.0,29.76,West,281,7.0,11.0,92,0.00,,,0.00,,2013-01-16 15:43:00,
2013-01-16 09:53:00,33.0,31.0,29.76,WNW,287,8.0,11.0,91,0.00,,,0.00,,2013-01-16 15:53:00,
2013-01-16 10:03:00,34.0,31.0,29.77,West,266,11.0,17.0,90,0.00,,,0.00,,2013-01-16 16:03:00,
2013-01-16 10:12:00,34.0,31.0,29.77,West,266,11.0,17.0,90,0.00,,,0.00,,2013-01-16 16:12:00,
2013-01-16 10:22:00,34.0,31.0,29.77,WNW,294,12.0,17.0,90,0.00,,,0.00,,2013-01-16 16:22:00,
2013-01-16 10:33:00,34.0,31.0,29.77,WNW,294,12.0,17.0,90,0.00,,,0.00,,2013-01-16 16:33:00,
2013-01-16 10:42:00,34.0,31.0,29.77,WNW,294,12.0,17.0,90,0.00,,,0.00,,2013-01-16 16:42:00,
2013-01-16 10:53:00,35.0,32.0,29.77,WNW,291,13.0,17.0,88,0.00,,,0.00,,2013-01-16 16:53:00,
2013-01-16 11:03:00,36.0,32.0,29.78,West,278,15.0,21.0,86,0.00,,,0.00,,2013-01-16 17:03:00,
2013-01-16 11:12:00,36.0,32.0,29.78,West,278,15.0,21.0,86,0.00,,,0.00,,2013-01-16 17:12:00,
2013-01-16 11:23:00,36.0,32.0,29.79,WNW,291,19.0,26.0,84,0.00,,,0.00,,2013-01-16 17:23:00,
2013-01-16 11:33:00,36.0,32.0,29.79,WNW,288,13.0,25.0,85,0.00,,,0.00,,2013-01-16 17:33:00,
2013-01-16 11:43:00,36.0,32.0,29.79,WNW,288,13.0,25.0,85,0.00,,,0.00,,2013-01-16 17:43:00,
2013-01-16 11:53:00,36.0,32.0,29.79,WNW,288,13.0,25.0,85,0.00,,,0.00,,2013-01-16 17:53:00,
2013-01-16 12:03:00,35.0,31.0,29.80,WNW,290,16.0,20.0,85,0.00,,,0.00,,2013-01-16 18:03:00,
2013-01-16 12:13:00,35.0,31.0,29.80,WNW,290,16.0,20.0,85,0.00,,,0.00,,2013-01-16 18:13:00,
2013-01-16 12:23:00,36.0,31.0,29.79,WNW,291,16.0,24.0,83,0.00,,,0.00,,2013-01-16 18:23:00,
2013-01-16 12:33:00,35.0,31.0,29.80,WNW,295,13.0,22.0,85,0.00,,,0.00,,2013-01-16 18:33:00,
2013-01-16 12:42:00,35.0,31.0,29.80,WNW,295,13.0,22.0,85,0.00,,,0.00,,2013-01-16 18:42:00,
2013-01-16 12:53:00,33.0,30.0,29.81,NW,316,11.0,16.0,90,0.00,,,0.00,,2013-01-16 18:53:00,
2013-01-16 13:03:00,32.0,30.0,29.82,NW,307,12.0,19.0,93,0.00,,,0.00,,2013-01-16 19:03:00,
2013-01-16 13:12:00,32.0,30.0,29.82,NW,307,12.0,19.0,93,0.00,,,0.00,,2013-01-16 19:12:00,
2013-01-16 13:23:00,32.0,30.0,29.82,NW,307,12.0,19.0,93,0.00,,,0.00,,2013-01-16 19:23:00,
2013-01-16 13:33:00,31.0,29.0,29.83,NW,325,12.0,18.0,93,0.00,,,0.00,,2013-01-16 19:33:00,
2013-01-16 13:43:00,31.0,29.0,29.83,NW,325,12.0,18.0,93,0.00,,,0.00,,2013-01-16 19:43:00,
2013-01-16 13:52:00,30.0,29.0,29.84,NW,311,10.0,16.0,95,0.00,,,0.00,,2013-01-16 19:52:00,
2013-01-16 14:03:00,30.0,29.0,29.85,NW,307,9.0,14.0,95,0.00,,,0.00,,2013-01-16 20:03:00,
2013-01-16 14:12:00,30.0,29.0,29.85,NW,307,9.0,14.0,95,0.00,,,0.00,,2013-01-16 20:12:00,
2013-01-16 14:23:00,29.0,28.0,29.85,NW,316,11.0,18.0,95,0.00,,,0.00,,2013-01-16 20:23:00,
2013-01-16 14:33:00,29.0,28.0,29.85,NW,316,11.0,18.0,95,0.00,,,0.00,,2013-01-16 20:33:00,
2013-01-16 14:42:00,29.0,28.0,29.85,NW,316,11.0,18.0,95,0.00,,,0.00,,2013-01-16 20:42:00,
2013-01-16 14:53:00,29.0,28.0,29.87,NW,311,10.0,14.0,95,0.00,,,0.00,,2013-01-16 20:53:00,
2013-01-16 15:03:00,29.0,27.0,29.88,NW,324,9.0,15.0,94,0.00,,,0.00,,2013-01-16 21:03:00,
2013-01-16 15:12:00,29.0,27.0,29.88,NW,324,9.0,15.0,94,0.00,,,0.00,,2013-01-16 21:12:00,
2013-01-16 15:22:00,28.0,27.0,29.90,WNW,298,10.0,14.0,95,0.00,,,0.00,,2013-01-16 21:22:00,
2013-01-16 15:33:00,28.0,27.0,29.91,NNW,340,13.0,16.0,94,0.00,,,0.00,,2013-01-16 21:33:00,
2013-01-16 15:43:00,28.0,27.0,29.91,NNW,340,13.0,16.0,94,0.00,,,0.00,,2013-01-16 21:43:00,
2013-01-16 15:52:00,28.0,27.0,29.91,NNW,340,13.0,16.0,94,0.00,,,0.00,,2013-01-16 21:52:00,
2013-01-16 16:03:00,28.0,25.0,29.93,NNW,334,14.0,18.0,90,0.00,,,0.00,,2013-01-16 22:03:00,
2013-01-16 16:12:00,28.0,25.0,29.93,NNW,334,14.0,18.0,90,0.00,,,0.00,,2013-01-16 22:12:00,
2013-01-16 16:23:00,27.0,24.0,29.94,NW,322,12.0,16.0,90,0.00,,,0.00,,2013-01-16 22:23:00,
2013-01-16 16:33:00,27.0,24.0,29.96,NW,325,11.0,18.0,89,0.00,,,0.00,,2013-01-16 22:33:00,
2013-01-16 16:43:00,27.0,24.0,29.96,NW,325,11.0,18.0,89,0.00,,,0.00,,2013-01-16 22:43:00,
2013-01-16 16:52:00,26.0,22.0,29.99,NW,321,13.0,16.0,86,0.00,,,0.00,,2013-01-16 22:52:00,
2013-01-16 17:03:00,26.0,22.0,29.99,NW,321,13.0,16.0,86,0.00,,,0.00,,2013-01-16 23:03:00,
2013-01-16 17:12:00,26.0,22.0,29.99,NW,321,13.0,16.0,86,0.00,,,0.00,,2013-01-16 23:12:00,
2013-01-16 17:23:00,26.0,22.0,30.00,NW,305,10.0,15.0,84,0.00,,,0.00,,2013-01-16 23:23:00,
2013-01-16 17:32:00,25.0,21.0,30.02,NW,311,10.0,14.0,84,0.00,,,0.00,,2013-01-16 23:32:00,
2013-01-16 17:42:00,25.0,21.0,30.02,NW,311,10.0,14.0,84,0.00,,,0.00,,2013-01-16 23:42:00,
2013-01-16 17:52:00,25.0,21.0,30.03,NW,316,8.0,12.0,85,0.00,,,0.00,,2013-01-16 23:52:00,
2013-01-16 18:02:00,25.0,21.0,30.03,NW,316,8.0,12.0,85,0.00,,,0.00,,2013-01-17 00:02:00,
2013-01-16 18:12:00,25.0,21.0,30.03,NW,316,8.0,12.0,85,0.00,,,0.00,,2013-01-17 00:12:00,
2013-01-16 18:22:00,23.0,18.0,30.05,NW,316,7.0,12.0,80,0.00,,,0.00,,2013-01-17 00:22:00,
2013-01-16 18:33:00,23.0,18.0,30.05,NW,316,7.0,12.0,80,0.00,,,0.00,,2013-01-17 00:33:00,
2013-01-16 18:42:00,23.0,18.0,30.05,NW,316,7.0,12.0,80,0.00,,,0.00,,2013-01-17 00:42:00,
2013-01-16 18:52:00,22.0,16.0,30.07,NW,314,6.0,8.0,78,0.00,,,0.00,,2013-01-17 00:52:00,
2013-01-16 19:02:00,22.0,14.0,30.09,NW,311,6.0,8.0,72,0.00,,,0.00,,2013-01-17 01:02:00,
2013-01-16 19:12:00,22.0,14.0,30.09,NW,311,6.0,8.0,72,0.00,,,0.00,,2013-01-17 01:12:00,
2013-01-16 19:22:00,20.0,12.0,30.12,NW,326,4.0,9.0,72,0.00,,,0.00,,2013-01-17 01:22:00,
2013-01-16 19:33:00,19.0,10.0,30.15,NW,322,8.0,10.0,67,0.00,,,0.00,,2013-01-17 01:33:00,
2013-01-16 19:42:00,19.0,10.0,30.15,NW,322,8.0,10.0,67,0.00,,,0.00,,2013-01-17 01:42:00,
2013-01-16 19:52:00,19.0,10.0,30.15,NW,322,8.0,10.0,67,0.00,,,0.00,,2013-01-17 01:52:00,
2013-01-16 20:02:00,19.0,9.0,30.16,NW,319,8.0,12.0,63,0.00,,,0.00,,2013-01-17 02:02:00,
2013-01-16 20:12:00,19.0,9.0,30.16,NW,319,8.0,12.0,63,0.00,,,0.00,,2013-01-17 02:12:00,
2013-01-16 20:22:00,18.0,9.0,30.17,WNW,296,2.0,10.0,67,0.00,,,0.00,,2013-01-17 02:22:00,
2013-01-16 20:32:00,17.0,10.0,30.17,WNW,298,5.0,6.0,74,0.00,,,0.00,,2013-01-17 02:32:00,
2013-01-16 20:42:00,17.0,10.0,30.17,WNW,298,5.0,6.0,74,0.00,,,0.00,,2013-01-17 02:42:00,
2013-01-16 20:52:00,17.0,10.0,30.17,WNW,298,5.0,6.0,74,0.00,,,0.00,,2013-01-17 02:52:00,
2013-01-16 21:03:00,17.0,11.0,30.17,WNW,294,7.0,9.0,77,0.00,,,0.00,,2013-01-17 03:03:00,
2013-01-16 21:12:00,17.0,11.0,30.17,WNW,294,7.0,9.0,77,0.00,,,0.00,,2013-01-17 03:12:00,
2013-01-16 21:22:00,16.0,9.0,30.19,WNW,285,9.0,12.0,75,0.00,,,0.00,,2013-01-17 03:22:00,
2013-01-16 21:32:00,16.0,9.0,30.19,WNW,287,9.0,13.0,75,0.00,,,0.00,,2013-01-17 03:32:00,
2013-01-16 21:42:00,16.0,9.0,30.19,WNW,287,9.0,13.0,75,0.00,,,0.00,,2013-01-17 03:42:00,
2013-01-16 21:52:00,14.0,8.0,30.20,WNW,290,8.0,11.0,78,0.00,,,0.00,,2013-01-17 03:52:00,
2013-01-16 22:02:00,14.0,8.0,30.21,WNW,295,10.0,14.0,75,0.00,,,0.00,,2013-01-17 04:02:00,
2013-01-16 22:12:00,14.0,8.0,30.21,WNW,295,10.0,14.0,75,0.00,,,0.00,,2013-01-17 04:12:00,
2013-01-16 22:22:00,14.0,8.0,30.21,WNW,295,10.0,14.0,75,0.00,,,0.00,,2013-01-17 04:22:00,
2013-01-16 22:32:00,13.0,6.0,30.22,WNW,303,9.0,15.0,73,0.00,,,0.00,,2013-01-17 04:32:00,
2013-01-16 22:42:00,13.0,6.0,30.22,WNW,303,9.0,15.0,73,0.00,,,0.00,,2013-01-17 04:42:00,
2013-01-16 22:52:00,12.0,4.0,30.22,NW,311,12.0,16.0,70,0.00,,,0.00,,2013-01-17 04:52:00,
2013-01-16 23:04:00,12.0,4.0,30.24,NW,309,11.0,15.0,71,0.00,,,0.00,,2013-01-17 05:04:00,
2013-01-16 23:12:00,12.0,4.0,30.24,NW,309,11.0,15.0,71,0.00,,,0.00,,2013-01-17 05:12:00,
2013-01-16 23:22:00,11.0,3.0,30.25,WNW,300,10.0,14.0,71,0.00,,,0.00,,2013-01-17 05:22:00,
2013-01-16 23:33:00,11.0,3.0,30.25,WNW,300,10.0,14.0,71,0.00,,,0.00,,2013-01-17 05:33:00,
2013-01-16 23:42:00,11.0,3.0,30.25,WNW,300,10.0,14.0,71,0.00,,,0.00,,2013-01-17 05:42:00,
2013-01-16 23:53:00,10.0,3.0,30.26,NW,310,9.0,13.0,71,0.00,,,0.00,,2013-01-17 05:53:00,